Wind_Speed
31 25 33 40 46 45 41 37 32 31 41 47 53 57 56 42 33 28 25 23 19 16 15 13 11 12 15 15 10 19 29 21 22 22 23 26 22 29 21 21 18 17 22 23 21 20 17 19 23
27 29 30 41 45 44 45 45 42 39 43 46 52 57 55 40 35 30 30 27 25 23 21 20 19 16 14 16 16 22 27 22 17 21 18 17 14 17 20 21 18 17 18 18 19 19 24 20 23
30 31 34 40 40 46 48 45 44 42 42 46 52 57 57 38 33 29 28 28 26 23 19 19 19 22 17 12 13 15 21 18 20 23 23 21 18 20 19 19 18 18 19 20 24 25 25 19 21
32 33 37 41 41 44 44 42 41 40 41 46 50 56 56 37 30 29 31 30 29 26 21 13 15 16 17 18 11 11 18 19 20 20 20 18 17 17 19 19 20 19 22 25 29 25 21 21 23
34 36 38 41 41 41 41 40 36 36 41 43 48 52 55 38 28 26 32 30 32 30 27 21 13 11 10 10 10 9 8 10 13 15 16 18 19 20 20 20 20 25 30 30 25 21 22 23 23
35 37 39 39 40 42 43 42 40 39 40 37 44 47 50 39 25 21 27 30 35 32 29 27 23 22 21 17 8 5 8 8 8 10 14 18 19 20 20 20 24 30 29 31 25 21 23 23 22
37 39 40 41 41 43 46 45 43 38 38 36 41 43 44 42 22 17 24 30 34 34 30 30 29 28 27 24 22 18 4 12 15 14 14 17 18 19 21 21 25 29 31 30 27 22 21 22 20
40 40 40 42 42 43 42 43 43 36 38 33 39 40 43 41 38 15 19 24 29 34 31 25 28 25 23 24 24 21 22 8 12 17 17 19 19 19 18 19 22 28 34 27 28 24 22 20 16
44 42 40 40 42 42 41 39 42 31 34 32 34 36 41 37 40 23 15 21 25 30 31 27 23 26 26 22 24 22 21 18 9 15 16 19 19 15 17 18 20 25 33 29 29 25 22 19 16
44 43 41 41 42 43 40 38 39 31 32 32 29 32 35 35 37 32 16 16 17 23 25 27 30 28 26 23 23 24 23 20 15 13 15 15 18 18 15 15 19 25 28 30 29 25 20 16 10
46 42 43 44 44 45 46 43 38 32 33 30 25 29 31 31 31 31 25 20 16 17 20 22 25 27 30 30 27 28 27 21 18 13 15 15 15 16 17 15 21 29 28 27 26 25 18 12 12
44 44 45 46 43 46 45 43 38 29 32 31 25 25 28 30 31 29 27 24 16 14 14 16 18 21 25 29 29 30 30 27 18 15 12 12 14 15 17 16 19 26 28 25 25 24 18 15 14
50 45 49 46 44 47 45 43 39 33 32 30 29 22 23 25 28 28 27 26 27 17 13 9 14 15 15 17 18 22 24 26 23 13 9 7 10 12 13 13 17 23 29 26 26 24 18 15 16
55 50 54 50 47 47 44 42 44 38 36 31 29 24 21 18 23 24 26 29 26 25 21 13 9 9 11 10 14 19 16 18 19 15 14 7 8 11 11 14 17 22 27 31 30 25 19 13 13
60 58 61 57 53 50 51 45 44 45 38 35 28 22 20 17 18 21 22 24 29 31 25 15 18 14 9 5 5 11 14 11 15 15 14 10 6 11 12 13 15 22 23 23 24 21 20 16 12
66 63 68 63 61 55 52 51 47 42 40 37 35 25 19 15 14 16 20 21 24 27 30 30 22 18 18 15 9 9 11 10 12 15 7 5 3 3 10 15 16 19 25 26 24 22 23 18 18
69 66 72 69 66 60 54 53 46 40 40 40 37 32 24 21 14 14 15 18 20 22 23 28 33 29 20 16 15 17 18 14 12 9 8 5 2 2 5 7 11 16 19 27 30 23 22 21 20
72 72 74 69 69 63 57 53 49 42 42 41 35 33 30 24 20 16 12 12 17 18 20 21 24 28 30 20 17 20 20 20 11 14 11 8 9 7 8 9 13 14 16 21 27 25 27 24 23
77 74 72 71 72 64 62 55 51 45 45 40 38 31 30 28 22 19 17 12 12 16 18 20 21 19 19 25 23 22 19 16 20 15 16 13 11 13 9 11 11 18 19 22 23 27 28 25 24
78 76 70 74 74 67 66 60 57 50 48 42 38 34 28 26 25 20 20 18 16 14 18 21 24 24 23 21 18 20 21 19 15 16 18 18 16 11 13 21 16 19 23 26 26 25 25 26 26
66 69 75 76 81 73 68 60 62 54 50 47 41 36 29 28 25 26 22 20 19 17 20 22 24 26 29 31 25 19 16 21 22 19 21 19 18 16 18 21 21 17 21 27 28 31 32 29 28
64 64 78 80 84 78 73 61 60 60 55 54 43 37 31 29 26 27 26 24 23 21 24 25 26 29 33 35 26 26 19 18 23 26 24 24 18 15 19 17 21 24 24 24 25 31 34 35 32
68 76 74 83 87 83 71 63 55 60 65 57 45 39 36 30 29 28 28 27 25 24 28 29 29 30 35 34 31 27 26 21 20 27 29 28 28 20 15 22 20 20 20 22 24 28 33 37 35
77 83 81 77 82 82 72 69 56 68 66 56 49 44 40 34 34 31 30 29 29 29 32 32 33 35 37 33 29 33 25 18 17 22 29 30 29 27 24 21 29 24 23 24 28 27 30 34 36
77 81 80 79 76 74 80 72 58 71 64 57 51 46 43 42 38 36 32 31 34 34 36 35 35 40 40 34 28 27 27 14 10 15 25 31 30 30 27 28 23 22 18 22 25 27 31 34 37
79 80 78 76 75 77 84 69 65 71 65 60 54 49 46 45 43 38 35 35 37 40 39 38 39 39 35 30 26 28 20 12 16 20 15 19 32 37 36 28 28 25 20 17 19 20 24 29 22
78 78 76 76 74 75 80 76 78 72 69 64 56 51 46 45 44 40 39 40 42 43 43 41 41 37 35 26 27 33 32 27 31 28 27 28 33 37 39 33 31 28 24 23 19 21 23 25 31
78 76 77 74 75 75 77 80 80 74 70 65 59 54 50 46 45 43 43 44 46 47 46 47 49 40 34 27 35 36 29 25 29 31 33 40 32 37 44 38 36 33 27 23 17 15 15 18 19
72 75 75 75 72 73 77 80 84 78 72 69 62 56 52 49 48 46 48 49 47 46 47 49 43 27 28 29 37 39 33 30 30 36 40 42 37 37 48 44 41 36 30 24 18 18 18 16 13
61 66 73 73 75 70 75 78 83 78 74 70 65 59 56 55 53 51 51 49 46 49 47 39 32 27 23 33 41 43 35 28 31 34 41 49 49 40 48 45 41 38 33 27 25 28 27 16 16
Wind_Direction
5 348 349 350 17 2 360 2 5 3 8 9 6 7 9 15 30 29 35 44 47 43 43 47 46 56 55 84 125 176 170 180 178 186 195 203 214 215 228 235 242 233 223 226 230 219 206 192 180
8 2 340 348 8 2 357 2 4 5 8 8 10 11 14 20 30 41 47 50 52 54 57 55 52 59 74 84 101 165 178 181 188 200 209 221 224 217 224 233 235 223 201 193 196 182 173 170 178
353 348 345 347 360 357 358 1 360 4 4 8 9 12 16 26 32 33 40 44 44 51 58 58 60 61 70 103 116 131 181 197 205 205 216 225 227 224 228 223 210 187 184 188 170 169 168 160 192
348 346 347 352 357 354 360 3 2 4 5 10 9 14 16 26 33 28 34 36 32 30 33 49 67 74 77 80 105 165 182 197 212 220 225 218 214 209 205 192 183 181 176 168 157 159 167 176 155
344 341 342 343 351 350 355 5 1 5 10 12 10 15 18 25 28 25 26 32 31 32 35 43 53 55 65 87 99 109 128 158 174 187 194 194 189 183 180 182 178 170 167 164 157 158 158 156 157
337 338 339 339 344 348 353 4 1 7 11 10 13 12 19 25 33 23 30 36 40 38 47 52 57 59 61 62 69 156 176 175 178 171 174 173 170 173 173 176 168 169 166 167 158 149 153 159 160
329 330 333 333 339 344 353 0 3 7 9 9 12 7 19 25 37 28 40 39 40 46 47 51 53 55 51 54 52 58 90 207 192 180 175 173 167 168 169 167 166 173 170 173 167 160 158 161 164
319 322 327 331 334 342 349 355 5 6 7 8 9 4 12 27 28 46 31 43 38 44 47 52 51 48 41 43 50 54 47 61 194 194 179 176 172 168 167 168 169 176 181 175 176 175 167 160 170
312 319 326 329 331 332 340 350 2 6 9 7 7 6 9 22 27 23 28 30 40 41 47 53 53 49 49 54 51 52 48 53 105 179 178 174 178 175 171 169 174 176 183 185 181 176 175 165 151
309 314 317 321 323 326 333 344 357 2 7 10 1 5 8 17 20 28 27 16 30 46 43 46 52 51 48 48 53 51 46 52 72 140 160 166 182 182 177 175 174 176 175 182 183 184 176 166 163
303 308 309 313 317 322 325 338 346 358 4 5 2 3 7 9 21 24 22 20 23 40 51 52 52 52 56 50 52 55 52 49 75 111 152 163 172 188 189 184 178 176 177 184 187 189 172 170 175
298 303 304 306 312 316 322 332 340 347 353 359 359 1 10 7 11 13 25 22 13 22 30 49 63 59 58 53 50 50 45 47 57 94 127 153 163 180 184 183 183 181 186 190 189 196 182 185 185
293 296 298 301 307 311 318 323 329 337 342 346 353 353 7 12 11 9 10 17 23 4 357 41 49 45 49 37 39 42 36 42 49 63 98 124 147 173 174 182 189 192 190 195 200 195 187 194 179
288 289 291 295 300 304 311 315 318 326 333 340 345 350 347 4 13 8 6 357 12 14 17 340 346 355 15 66 36 28 6 14 41 40 49 100 150 162 183 197 194 204 196 197 200 198 205 211 211
283 285 287 290 292 297 302 305 308 317 320 327 335 340 338 342 8 6 10 356 352 359 16 15 360 328 316 331 12 20 16 4 14 31 39 46 174 188 195 200 203 205 201 200 206 202 209 221 224
278 279 282 282 285 290 293 296 300 306 310 317 320 329 335 323 330 9 10 6 354 353 354 359 0 349 330 315 302 322 348 356 353 10 8 23 30 187 204 191 203 214 213 212 218 221 227 235 236
273 273 273 276 279 283 286 288 290 296 301 306 311 316 321 328 311 322 3 6 353 353 355 346 343 345 348 316 306 311 312 315 319 342 352 274 356 319 186 214 214 208 214 217 217 222 231 236 242
264 267 269 272 274 275 277 281 284 288 291 297 300 306 313 314 316 293 326 345 3 354 353 346 340 335 336 338 305 302 298 295 291 286 284 268 269 260 262 229 238 224 211 213 224 227 233 237 244
263 265 265 267 267 269 271 272 275 280 282 288 292 296 304 307 311 298 300 302 319 337 346 351 351 334 339 336 321 294 297 313 261 265 267 273 254 257 246 242 251 237 231 223 222 228 235 244 245
256 259 260 262 264 263 265 267 268 271 276 280 283 287 292 296 296 291 281 291 303 325 325 328 343 340 343 333 322 303 290 274 271 250 256 263 259 239 264 271 271 242 236 228 229 227 230 234 238
259 260 255 254 257 260 259 260 265 266 270 272 272 278 282 283 283 284 275 277 287 304 310 318 329 332 335 334 327 312 286 274 259 251 250 238 244 242 244 243 238 240 244 240 234 239 235 236 238
258 257 250 250 252 255 253 252 260 265 265 263 266 272 275 274 273 274 277 277 280 294 303 311 322 327 332 333 328 322 302 266 259 246 242 239 223 241 237 230 237 244 245 247 247 240 239 242 243
252 252 250 247 248 251 251 248 247 257 259 261 265 267 269 269 267 270 274 278 285 293 297 307 317 320 328 329 327 326 319 289 258 241 240 238 239 246 255 231 226 242 251 252 253 255 246 243 242
248 251 252 255 250 252 247 248 242 252 256 262 262 264 265 268 264 265 269 277 283 289 295 304 315 317 318 318 315 320 324 306 277 247 242 243 240 245 248 236 233 250 260 262 253 255 255 248 244
251 253 254 254 250 247 243 244 239 250 256 257 259 259 261 263 261 265 271 277 283 288 291 302 311 311 314 313 305 321 318 293 255 266 245 241 244 239 246 237 246 232 258 271 263 252 254 250 252
244 245 247 250 247 241 241 241 240 245 251 253 257 258 259 260 261 264 271 275 281 285 292 303 305 315 308 305 293 306 319 246 209 257 252 246 249 245 247 244 245 248 263 248 259 269 268 250 255
241 242 243 242 241 241 239 237 240 244 247 250 253 256 257 256 261 267 271 277 281 287 294 302 297 304 305 292 301 307 299 250 248 256 244 251 251 241 240 239 239 242 247 243 262 270 262 260 264
238 239 238 239 238 240 238 237 238 240 244 248 249 251 255 255 261 267 273 276 283 287 298 296 295 293 296 285 307 310 301 265 246 244 239 240 240 235 231 230 235 234 229 242 256 264 262 264 244
238 236 236 236 237 238 237 236 237 240 241 245 247 249 253 255 259 264 268 275 281 289 290 294 297 283 277 300 317 318 313 290 267 249 245 247 243 239 228 227 231 227 231 235 244 259 265 255 235
236 236 238 241 242 240 241 238 238 241 244 245 248 249 252 254 259 263 267 273 282 292 286 287 289 275 267 314 323 319 305 288 271 253 244 244 244 252 230 227 227 226 227 224 253 253 248 248 257
Height
11002 11000 10997 10994 10987 10984 10981 10975 10969 10962 10952 10942 10932 10919 10910 10898 10894 10891 10887 10882 10881 10879 10877 10877 10875 10874 10872 10870 10872 10876 10883 10891 10896 10901 10906 10911 10915 10919 10922 10926 10929 10932 10935 10938 10941 10944 10947 10950 10954
11003 11001 11000 10996 10991 10988 10981 10971 10964 10957 10950 10945 10934 10924 10913 10903 10897 10895 10891 10888 10885 10881 10881 10880 10878 10876 10876 10876 10877 10881 10886 10892 10896 10901 10905 10909 10913 10916 10919 10923 10926 10930 10933 10936 10940 10944 10948 10951 10955
11004 11003 10998 10995 10994 10989 10982 10973 10964 10955 10949 10942 10933 10925 10914 10908 10903 10900 10896 10892 10888 10886 10885 10883 10882 10880 10880 10880 10882 10885 10889 10893 10896 10900 10904 10908 10911 10915 10917 10920 10925 10929 10932 10936 10940 10945 10949 10950 10955
11003 11001 10998 10993 10991 10990 10986 10978 10969 10959 10949 10942 10936 10927 10918 10914 10910 10906 10900 10895 10892 10890 10888 10887 10885 10884 10884 10884 10886 10888 10890 10892 10895 10898 10902 10905 10908 10912 10916 10920 10924 10928 10931 10936 10941 10946 10949 10951 10954
11000 10998 10996 10994 10990 10989 10986 10981 10974 10964 10952 10946 10939 10933 10925 10919 10916 10912 10907 10901 10898 10894 10891 10889 10888 10888 10887 10887 10887 10889 10892 10894 10895 10896 10899 10903 10907 10911 10915 10920 10924 10928 10932 10937 10942 10945 10948 10952 10954
10999 10996 10995 10993 10991 10987 10984 10978 10972 10963 10956 10951 10946 10940 10934 10928 10923 10921 10916 10910 10905 10901 10898 10894 10892 10891 10890 10889 10890 10890 10891 10892 10895 10897 10900 10904 10907 10911 10915 10920 10924 10928 10933 10937 10941 10945 10948 10951 10954
11001 10997 10995 10992 10990 10986 10980 10977 10974 10966 10961 10954 10949 10945 10942 10937 10931 10927 10922 10915 10911 10908 10905 10902 10900 10898 10897 10894 10892 10890 10890 10891 10893 10896 10900 10904 10908 10913 10916 10920 10924 10929 10934 10938 10942 10945 10948 10951 10954
10999 10998 10994 10990 10988 10985 10984 10980 10978 10969 10963 10958 10951 10948 10942 10938 10932 10930 10926 10922 10918 10914 10911 10908 10906 10904 10903 10900 10897 10895 10893 10891 10892 10896 10900 10905 10909 10913 10916 10920 10925 10931 10936 10940 10943 10946 10948 10952 10954
10993 10994 10991 10988 10986 10986 10986 10984 10979 10974 10970 10961 10957 10953 10945 10939 10935 10931 10930 10927 10923 10919 10916 10913 10911 10909 10907 10905 10903 10901 10898 10894 10893 10897 10902 10907 10911 10915 10918 10922 10926 10930 10935 10940 10944 10947 10950 10953 10956
10989 10990 10987 10986 10984 10982 10983 10984 10979 10976 10971 10966 10961 10957 10951 10944 10939 10936 10933 10930 10927 10923 10920 10918 10916 10913 10912 10910 10908 10906 10903 10899 10897 10899 10903 10909 10913 10916 10920 10923 10927 10932 10936 10941 10945 10948 10952 10953 10955
10985 10986 10984 10982 10982 10980 10977 10978 10977 10976 10972 10969 10966 10960 10955 10950 10945 10939 10936 10934 10931 10928 10926 10924 10921 10919 10916 10915 10913 10911 10909 10906 10903 10904 10907 10911 10916 10919 10922 10925 10928 10933 10938 10942 10947 10950 10952 10953 10955
10980 10980 10978 10979 10979 10976 10973 10974 10975 10974 10974 10970 10966 10963 10958 10952 10946 10944 10938 10936 10934 10931 10929 10928 10925 10923 10921 10920 10919 10917 10915 10914 10912 10911 10912 10915 10918 10920 10923 10926 10930 10934 10938 10944 10947 10950 10952 10954 10955
10974 10975 10972 10972 10975 10973 10972 10969 10970 10971 10970 10968 10965 10962 10961 10955 10948 10944 10942 10937 10935 10932 10931 10930 10928 10926 10925 10924 10923 10922 10921 10920 10919 10919 10918 10919 10920 10923 10925 10929 10932 10935 10939 10944 10947 10950 10952 10953 10955
10964 10968 10963 10966 10968 10969 10970 10968 10965 10967 10967 10966 10965 10962 10960 10958 10952 10947 10941 10938 10936 10933 10930 10929 10930 10929 10928 10927 10926 10925 10924 10925 10923 10922 10922 10923 10924 10925 10927 10929 10931 10935 10939 10943 10946 10949 10951 10953 10954
10956 10959 10953 10956 10959 10964 10964 10964 10963 10961 10963 10962 10963 10962 10959 10957 10954 10947 10942 10938 10935 10931 10930 10929 10927 10928 10930 10929 10929 10927 10926 10926 10925 10924 10924 10924 10926 10926 10927 10928 10930 10933 10938 10941 10944 10947 10949 10951 10953
10946 10949 10941 10948 10950 10955 10962 10960 10960 10959 10957 10959 10958 10960 10958 10957 10953 10949 10943 10940 10937 10932 10929 10927 10928 10928 10927 10927 10928 10927 10927 10927 10926 10925 10926 10927 10927 10927 10928 10928 10930 10932 10936 10939 10941 10944 10947 10950 10952
10933 10935 10929 10936 10940 10946 10952 10954 10955 10955 10953 10953 10954 10954 10954 10952 10951 10948 10943 10941 10938 10935 10931 10928 10924 10925 10926 10924 10924 10924 10924 10925 10925 10926 10927 10927 10926 10927 10926 10928 10929 10930 10931 10935 10938 10943 10945 10947 10950
10909 10920 10917 10926 10927 10934 10942 10946 10946 10949 10948 10948 10950 10949 10948 10949 10947 10946 10943 10941 10939 10935 10933 10931 10928 10924 10922 10922 10923 10922 10923 10922 10922 10923 10924 10925 10925 10926 10925 10926 10928 10929 10929 10931 10934 10938 10941 10944 10946
10896 10905 10906 10910 10911 10923 10926 10936 10939 10943 10941 10944 10943 10944 10943 10941 10942 10941 10941 10940 10938 10935 10933 10931 10929 10926 10923 10920 10919 10919 10919 10919 10919 10920 10921 10921 10922 10924 10924 10925 10926 10928 10929 10930 10931 10933 10936 10939 10941
10882 10885 10896 10892 10894 10908 10911 10922 10925 10934 10935 10937 10938 10938 10938 10937 10936 10936 10936 10936 10935 10934 10932 10931 10927 10923 10921 10919 10917 10914 10913 10915 10914 10915 10917 10916 10918 10919 10920 10922 10924 10925 10926 10927 10928 10930 10931 10933 10936
10870 10877 10875 10878 10872 10890 10898 10909 10913 10921 10927 10928 10931 10932 10933 10931 10931 10929 10931 10931 10930 10929 10929 10928 10924 10921 10917 10914 10912 10909 10907 10905 10908 10909 10911 10912 10912 10914 10917 10917 10919 10920 10921 10923 10924 10925 10926 10928 10930
10858 10860 10855 10859 10854 10869 10881 10897 10903 10907 10912 10914 10923 10925 10925 10925 10925 10924 10922 10924 10924 10924 10923 10922 10918 10915 10911 10906 10902 10900 10898 10898 10900 10902 10905 10908 10908 10909 10912 10913 10914 10915 10916 10917 10918 10918 10920 10922 10924
10843 10830 10835 10837 10839 10848 10871 10884 10893 10893 10894 10904 10914 10918 10918 10918 10917 10917 10916 10916 10917 10917 10916 10915 10911 10908 10904 10899 10895 10892 10891 10891 10893 10895 10898 10901 10904 10907 10907 10909 10909 10910 10910 10911 10911 10912 10914 10915 10917
10813 10807 10817 10823 10829 10835 10858 10866 10886 10875 10882 10896 10903 10907 10908 10909 10910 10911 10910 10910 10909 10910 10908 10906 10903 10901 10897 10893 10889 10887 10885 10883 10885 10888 10892 10896 10899 10901 10903 10904 10904 10905 10905 10905 10905 10907 10907 10908 10910
10789 10792 10800 10807 10816 10834 10833 10849 10877 10862 10871 10884 10891 10897 10899 10900 10901 10902 10904 10902 10901 10901 10901 10899 10897 10894 10891 10888 10882 10884 10882 10878 10881 10882 10884 10888 10893 10896 10897 10898 10897 10898 10899 10900 10900 10901 10901 10901 10904
10762 10770 10778 10789 10800 10812 10818 10844 10854 10848 10863 10872 10879 10885 10889 10889 10890 10893 10895 10895 10894 10893 10892 10892 10890 10888 10883 10882 10878 10875 10875 10874 10872 10872 10876 10878 10882 10886 10889 10889 10891 10891 10892 10893 10894 10895 10896 10897 10899
10742 10753 10763 10768 10785 10793 10808 10828 10824 10836 10848 10858 10867 10873 10876 10879 10879 10884 10885 10885 10884 10883 10882 10883 10881 10880 10876 10874 10870 10866 10865 10865 10863 10860 10859 10865 10869 10872 10877 10879 10882 10885 10885 10887 10887 10887 10889 10890 10893
10723 10736 10743 10754 10766 10778 10795 10808 10813 10827 10836 10846 10855 10859 10863 10869 10871 10875 10877 10876 10875 10871 10873 10872 10868 10868 10868 10865 10861 10857 10852 10851 10851 10851 10850 10851 10856 10860 10865 10868 10873 10876 10878 10880 10882 10883 10883 10882 10883
10716 10722 10731 10737 10752 10766 10777 10788 10797 10814 10824 10832 10843 10849 10855 10858 10861 10865 10865 10863 10864 10863 10861 10856 10853 10855 10857 10856 10851 10848 10844 10843 10843 10842 10843 10844 10848 10851 10855 10858 10863 10867 10870 10873 10876 10878 10879 10878 10878
10703 10713 10719 10728 10739 10756 10761 10777 10785 10802 10812 10821 10830 10839 10843 10846 10851 10854 10854 10853 10852 10850 10847 10847 10845 10842 10844 10842 10843 10841 10838 10834 10832 10832 10832 10835 10838 10843 10848 10851 10856 10859 10862 10865 10870 10873 10874 10874 10874